Location: Lane
(33.5226°N, 79.8788°W)
Time: 11:08:37
(UTC+00:00)

Altair - Pass Details

Date: 05 October 2022
Orbit: 1501 x 1682 km, 47.2° (Epoch: 30 November)

Event Time Altitude Azimuth Distance (km) Brightness Sun altitude
Rises 07:28:37 0° 201° (SSW) 4,673 - -46.5°
Reaches altitude 10° 07:31:53 10° 194° (SSW) 3,714 - -45.9°
Maximum altitude 07:40:20 38° 130° (SE) 2,237 - -44.4°
Exits shadow 07:41:10 38° 119° (ESE) 2,262 8.4 -44.3°
Drops below altitude 10° 07:49:05 10° 66° (ENE) 3,856 10.2 -42.8°
Sets 07:52:31 0° 59° (ENE) 4,869 11.0 -42.2°
